,,,PA_Meas_PMT16A,,PR_Meas_QMR101_102,,RH_Meas_QMH101,,SR_Meas_QMS101,,TA_Meas_QMH101,,GenWind,,GenWind,
date,time,status,PA,status,PR,status,RH,status,SR,status,TA,status,DirAvg,status,SpdAvg,
2010-08-29, 00:00:05,VALID,1002.77,VALID,0,VALID,92.3718,VALID,0,VALID,22.8835,VALID,48,VALID,1.03516,
2010-08-29, 00:01:05,VALID,1002.76,VALID,0,VALID,92.2726,VALID,0,VALID,22.8232,VALID,39,VALID,0.737891,
2010-08-29, 00:02:05,VALID,1002.78,VALID,0,VALID,92.2345,VALID,0,VALID,22.7842,VALID,41,VALID,0.823047,
2010-08-29, 00:03:05,VALID,1002.75,VALID,0,VALID,92.2345,VALID,0,VALID,22.8055,VALID,39,VALID,0.793359,
2010-08-29, 00:04:05,VALID,1002.75,VALID,0,VALID,92.2726,VALID,0,VALID,22.7452,VALID,32,VALID,0.659375,
2010-08-29, 00:05:05,VALID,1002.79,VALID,0,VALID,92.2955,VALID,0,VALID,22.7274,VALID,32,VALID,0.635547,
2010-08-29, 00:06:05,VALID,1002.74,VALID,0,VALID,92.3413,VALID,0,VALID,22.6867,VALID,32,VALID,0.805469,
2010-08-29, 00:07:05,VALID,1002.73,VALID,0,VALID,92.4863,VALID,0,VALID,22.7062,VALID,32,VALID,0.916406,
2010-08-29, 00:08:05,VALID,1002.73,VALID,0,VALID,92.5549,VALID,0,VALID,22.7062,VALID,32,VALID,0.864844,
2010-08-29, 00:09:05,VALID,1002.72,VALID,0,VALID,92.6236,VALID,0,VALID,22.6884,VALID,32,VALID,0.838281,
2010-08-29, 00:10:05,VALID,1002.71,VALID,0,VALID,92.6617,VALID,0,VALID,22.6689,VALID,32,VALID,0.694922,
2010-08-29, 00:11:05,VALID,1002.74,VALID,0,VALID,92.6388,VALID,0,VALID,22.6282,VALID,29,VALID,0.5375,
2010-08-29, 00:12:05,VALID,1002.71,VALID,0,VALID,92.5702,VALID,0,VALID,22.5892,VALID,29,VALID,0.0617188,
2010-08-29, 00:13:05,VALID,1002.72,VALID,0,VALID,92.6312,VALID,0,VALID,22.6087,VALID,29,VALID,0.275,
2010-08-29, 00:14:05,VALID,1002.69,VALID,0,VALID,92.7914,VALID,0,VALID,22.6867,VALID,29,VALID,0.256641,
2010-08-29, 00:15:05,VALID,1002.69,VALID,0,VALID,92.9364,VALID,0,VALID,22.7257,VALID,29,VALID,0.1625,
2010-08-29, 00:16:05,VALID,1002.67,VALID,0,VALID,93.0051,VALID,0,VALID,22.7842,VALID,29,VALID,0.0464844,
2010-08-29, 00:17:05,VALID,1002.65,VALID,0,VALID,93.0432,VALID,0,VALID,22.7842,VALID,29,VALID,0,
2010-08-29, 00:18:05,VALID,1002.62,VALID,0,VALID,93.0508,VALID,0,VALID,22.7842,VALID,29,VALID,0,
2010-08-29, 00:19:05,VALID,1002.6,VALID,0,VALID,93.0814,VALID,0,VALID,22.7842,VALID,29,VALID,0.0371094,
2010-08-29, 00:20:05,VALID,1002.6,VALID,0,VALID,93.0508,VALID,0,VALID,22.8055,VALID,29,VALID,0.388281,
2010-08-29, 00:21:05,VALID,1002.59,VALID,0,VALID,93.0814,VALID,0,VALID,22.8037,VALID,29,VALID,0.271484,
2010-08-29, 00:22:05,VALID,1002.59,VALID,0,VALID,93.0356,VALID,0,VALID,22.8232,VALID,29,VALID,0.258594,
2010-08-29, 00:23:05,VALID,1002.59,VALID,0,VALID,92.9745,VALID,0,VALID,22.8037,VALID,109,VALID,0.410156,
2010-08-29, 00:24:05,VALID,1002.59,VALID,0,VALID,92.883,VALID,0,VALID,22.7842,VALID,109,VALID,0.144531,
2010-08-29, 00:25:05,VALID,1002.59,VALID,0,VALID,92.7838,VALID,0,VALID,22.7842,VALID,109,VALID,0.0835937,
2010-08-29, 00:26:05,VALID,1002.58,VALID,0,VALID,92.7075,VALID,0,VALID,22.8055,VALID,109,VALID,0.276953,
2010-08-29, 00:27:05,VALID,1002.59,VALID,0,VALID,92.6236,VALID,0,VALID,22.7647,VALID,105,VALID,0.522656,
2010-08-29, 00:28:05,VALID,1002.59,VALID,0,VALID,92.5015,VALID,0,VALID,22.7664,VALID,15,VALID,0.735156,
2010-08-29, 00:29:05,VALID,1002.6,VALID,0,VALID,92.3566,VALID,0,VALID,22.7062,VALID,1,VALID,0.651953,
2010-08-29, 00:30:05,VALID,1002.57,VALID,0,VALID,92.3566,VALID,0,VALID,22.6867,VALID,1,VALID,0.480078,
2010-08-29, 00:31:05,VALID,1002.54,VALID,0,VALID,92.4176,VALID,0,VALID,22.7062,VALID,341,VALID,0.822656,
2010-08-29, 00:32:05,VALID,1002.54,VALID,0,VALID,92.4634,VALID,0,VALID,22.6867,VALID,338,VALID,0.915625,
2010-08-29, 00:33:05,VALID,1002.52,VALID,0,VALID,92.471,VALID,0,VALID,22.6477,VALID,338,VALID,0.907031,
2010-08-29, 00:34:05,VALID,1002.5,VALID,0,VALID,92.4863,VALID,0,VALID,22.6282,VALID,338,VALID,0.816016,
2010-08-29, 00:35:05,VALID,1002.48,VALID,0,VALID,92.6236,VALID,0,VALID,22.6477,VALID,338,VALID,0.421484,
2010-08-29, 00:36:05,VALID,1002.49,VALID,0,VALID,92.7228,VALID,0,VALID,22.6689,VALID,338,VALID,0.503125,
2010-08-29, 00:37:05,VALID,1002.47,VALID,0,VALID,92.7991,VALID,0,VALID,22.6672,VALID,338,VALID,0.577734,
2010-08-29, 00:38:05,VALID,1002.45,VALID,0,VALID,92.8677,VALID,0,VALID,22.6672,VALID,9,VALID,0.625391,
2010-08-29, 00:39:05,VALID,1002.44,VALID,0,VALID,92.9288,VALID,0,VALID,22.6672,VALID,9,VALID,0.633203,
2010-08-29, 00:40:05,VALID,1002.45,VALID,0,VALID,92.9288,VALID,0,VALID,22.6672,VALID,26,VALID,0.66875,
2010-08-29, 00:41:05,VALID,1002.42,VALID,0,VALID,92.9288,VALID,0,VALID,22.6867,VALID,34,VALID,0.632031,
2010-08-29, 00:42:05,VALID,1002.42,VALID,0,VALID,92.8677,VALID,0,VALID,22.7079,VALID,76,VALID,0.859375,
2010-08-29, 00:43:05,VALID,1002.37,VALID,0,VALID,92.7609,VALID,0,VALID,22.7062,VALID,91,VALID,1.26289,
2010-08-29, 00:44:05,VALID,1002.38,VALID,0,VALID,92.5473,VALID,0,VALID,22.7664,VALID,95,VALID,1.04297,
2010-08-29, 00:45:05,VALID,1002.32,VALID,0,VALID,92.2803,VALID,0,VALID,22.825,VALID,108,VALID,1.10195,
2010-08-29, 00:46:05,VALID,1002.32,VALID,0,VALID,91.9522,VALID,0,VALID,22.8232,VALID,111,VALID,1.03945,
2010-08-29, 00:47:05,VALID,1002.28,VALID,0,VALID,91.6699,VALID,0,VALID,22.8037,VALID,111,VALID,0.934766,
2010-08-29, 00:48:05,VALID,1002.24,VALID,0,VALID,91.3876,VALID,0,VALID,22.825,VALID,111,VALID,0.914453,
2010-08-29, 00:49:05,VALID,1002.22,VALID,0,VALID,91.1206,VALID,0,VALID,22.7842,VALID,122,VALID,1.07187,
2010-08-29, 00:50:05,VALID,1002.18,VALID,0,VALID,90.7772,VALID,0,VALID,22.8055,VALID,133,VALID,1.30313,
2010-08-29, 00:51:05,VALID,1002.22,VALID,0,VALID,90.556,VALID,0,VALID,22.8427,VALID,133,VALID,1.19492,
2010-08-29, 00:52:05,VALID,1002.19,VALID,0,VALID,90.2813,VALID,0,VALID,22.9013,VALID,133,VALID,0.962891,
2010-08-29, 00:53:05,VALID,1002.18,VALID,0,VALID,90.1211,VALID,0,VALID,22.9811,VALID,135,VALID,0.950391,
2010-08-29, 00:54:05,VALID,1002.19,VALID,0,VALID,89.8388,VALID,0,VALID,23.0396,VALID,138,VALID,0.928516,
2010-08-29, 00:55:05,VALID,1002.19,VALID,0,VALID,89.5489,VALID,0,VALID,23.0769,VALID,138,VALID,0.885938,
2010-08-29, 00:56:05,VALID,1002.17,VALID,0,VALID,89.32,VALID,0,VALID,23.1176,VALID,138,VALID,0.632031,
2010-08-29, 00:57:05,VALID,1002.16,VALID,0,VALID,89.2513,VALID,0,VALID,23.1159,VALID,142,VALID,0.629297,
2010-08-29, 00:58:05,VALID,1002.18,VALID,0,VALID,89.1979,VALID,0,VALID,23.1159,VALID,144,VALID,0.816797,
2010-08-29, 00:59:05,VALID,1002.18,VALID,0,VALID,89.114,VALID,0,VALID,23.1371,VALID,145,VALID,0.709375,
2010-08-29, 01:00:05,VALID,1002.15,VALID,0,VALID,89.1597,VALID,0,VALID,23.1159,VALID,167,VALID,1.17266,
2010-08-29, 01:01:05,VALID,1002.13,VALID,0,VALID,89.0682,VALID,0,VALID,23.1159,VALID,150,VALID,1.42656,
2010-08-29, 01:02:05,VALID,1002.15,VALID,0,VALID,88.7554,VALID,0,VALID,23.1744,VALID,152,VALID,1.20078,
2010-08-29, 01:03:05,VALID,1002.13,VALID,0,VALID,88.5799,VALID,0,VALID,23.2542,VALID,153,VALID,1.14375,
2010-08-29, 01:04:05,VALID,1002.13,VALID,0,VALID,88.3357,VALID,0,VALID,23.2719,VALID,150,VALID,1.02617,
2010-08-29, 01:05:05,VALID,1002.1,VALID,0,VALID,88.1908,VALID,0,VALID,23.311,VALID,150,VALID,0.994922,
2010-08-29, 01:06:05,VALID,1002.09,VALID,0,VALID,87.9695,VALID,0,VALID,23.3305,VALID,150,VALID,0.967188,
2010-08-29, 01:07:05,VALID,1002.07,VALID,0,VALID,87.7788,VALID,0,VALID,23.3482,VALID,147,VALID,0.927344,
2010-08-29, 01:08:05,VALID,1002.07,VALID,0,VALID,87.8246,VALID,0,VALID,23.35,VALID,132,VALID,1.02578,
2010-08-29, 01:09:05,VALID,1002.02,VALID,0,VALID,87.7177,VALID,0,VALID,23.3305,VALID,124,VALID,0.852344,
2010-08-29, 01:10:05,VALID,1002.03,VALID,0,VALID,87.9695,VALID,0,VALID,23.2719,VALID,117,VALID,0.55625,
2010-08-29, 01:11:05,VALID,1001.99,VALID,0,VALID,88.2823,VALID,0,VALID,23.1939,VALID,107,VALID,0.634766,
2010-08-29, 01:12:05,VALID,1001.98,VALID,0,VALID,88.3663,VALID,0,VALID,23.1159,VALID,107,VALID,0.604688,
2010-08-29, 01:13:05,VALID,1001.97,VALID,0,VALID,88.8546,VALID,0,VALID,23.0573,VALID,107,VALID,0.622656,
2010-08-29, 01:14:05,VALID,1001.96,VALID,0,VALID,89.0529,VALID,0,VALID,22.9776,VALID,107,VALID,0.565625,
2010-08-29, 01:15:05,VALID,1001.94,VALID,0,VALID,89.0606,VALID,0,VALID,22.9403,VALID,107,VALID,0.3375,
2010-08-29, 01:16:05,VALID,1001.94,VALID,0,VALID,89.5183,VALID,0,VALID,22.8623,VALID,107,VALID,0.410156,
2010-08-29, 01:17:05,VALID,1001.92,VALID,0,VALID,90.0219,VALID,0,VALID,22.8427,VALID,107,VALID,0.488672,
2010-08-29, 01:18:04,VALID,1001.88,VALID,0,VALID,90.2203,VALID,0,VALID,22.8037,VALID,107,VALID,0.451172,
2010-08-29, 01:19:04,VALID,1001.91,VALID,0,VALID,90.5865,VALID,0,VALID,22.7647,VALID,107,VALID,0.288672,
2010-08-29, 01:20:04,VALID,1001.9,VALID,0,VALID,90.8077,VALID,0,VALID,22.7435,VALID,107,VALID,0.303906,
2010-08-29, 01:21:04,VALID,1001.86,VALID,0,VALID,90.8459,VALID,0,VALID,22.7257,VALID,107,VALID,0.4125,
2010-08-29, 01:22:04,VALID,1001.84,VALID,0,VALID,90.9222,VALID,0,VALID,22.6655,VALID,107,VALID,0.424609,
2010-08-29, 01:23:04,VALID,1001.84,VALID,0,VALID,91.1816,VALID,0,VALID,22.6672,VALID,107,VALID,0.484766,
2010-08-29, 01:24:04,VALID,1001.84,VALID,0,VALID,91.4028,VALID,0,VALID,22.6672,VALID,107,VALID,0.617578,
2010-08-29, 01:25:04,VALID,1001.82,VALID,0,VALID,91.5631,VALID,0,VALID,22.6672,VALID,102,VALID,0.699609,
2010-08-29, 01:26:04,VALID,1001.77,VALID,0,VALID,91.5249,VALID,0,VALID,22.6477,VALID,88,VALID,0.788281,
2010-08-29, 01:27:04,VALID,1001.73,VALID,0,VALID,91.38,VALID,0,VALID,22.6477,VALID,77,VALID,0.739453,
2010-08-29, 01:28:04,VALID,1001.71,VALID,0,VALID,91.296,VALID,0,VALID,22.6282,VALID,66,VALID,1.05039,
2010-08-29, 01:29:04,VALID,1001.67,VALID,0,VALID,91.2426,VALID,0,VALID,22.6087,VALID,62,VALID,1.1625,
2010-08-29, 01:30:04,VALID,1001.68,VALID,0,VALID,91.2121,VALID,0,VALID,22.6087,VALID,59,VALID,1.11289,
2010-08-29, 01:31:04,VALID,1001.65,VALID,0,VALID,91.3418,VALID,0,VALID,22.5892,VALID,56,VALID,1.08477,
2010-08-29, 01:32:04,VALID,1001.68,VALID,0,VALID,91.3418,VALID,0,VALID,22.5696,VALID,57,VALID,0.590234,
2010-08-29, 01:33:04,VALID,1001.68,VALID,0,VALID,91.2808,VALID,0,VALID,22.5306,VALID,43,VALID,0.90625,
2010-08-29, 01:34:04,VALID,1001.67,VALID,0,VALID,91.4028,VALID,0,VALID,22.4916,VALID,55,VALID,0.959375,
2010-08-29, 01:35:04,VALID,1001.71,VALID,0,VALID,91.5326,VALID,0,VALID,22.4916,VALID,53,VALID,1.02813,
2010-08-29, 01:36:04,VALID,1001.71,VALID,0,VALID,91.586,VALID,0,VALID,22.4119,VALID,60,VALID,0.841406,
2010-08-29, 01:37:04,VALID,1001.7,VALID,0,VALID,91.6623,VALID,0,VALID,22.4526,VALID,69,VALID,1.19336,
2010-08-29, 01:38:04,VALID,1001.67,VALID,0,VALID,91.7767,VALID,0,VALID,22.4526,VALID,61,VALID,1.09531,
2010-08-29, 01:39:04,VALID,1001.66,VALID,0,VALID,91.8148,VALID,0,VALID,22.4314,VALID,59,VALID,1.05117,
2010-08-29, 01:40:04,VALID,1001.67,VALID,0,VALID,91.8759,VALID,0,VALID,22.4916,VALID,63,VALID,0.869922,
2010-08-29, 01:41:04,VALID,1001.69,VALID,0,VALID,91.8072,VALID,0,VALID,22.4916,VALID,63,VALID,0.579687,
2010-08-29, 01:42:04,VALID,1001.69,VALID,0,VALID,91.7538,VALID,0,VALID,22.5306,VALID,63,VALID,0.407813,
2010-08-29, 01:43:04,VALID,1001.66,VALID,0,VALID,91.6851,VALID,0,VALID,22.5306,VALID,63,VALID,0.424219,
2010-08-29, 01:44:04,VALID,1001.65,VALID,0,VALID,91.6546,VALID,0,VALID,22.5306,VALID,63,VALID,0.425391,
2010-08-29, 01:45:04,VALID,1001.66,VALID,0,VALID,91.6241,VALID,0,VALID,22.5094,VALID,63,VALID,0.319141,
2010-08-29, 01:46:04,VALID,1001.66,VALID,0,VALID,91.5936,VALID,0,VALID,22.5484,VALID,63,VALID,0.157422,
2010-08-29, 01:47:04,VALID,1001.64,VALID,0,VALID,91.4334,VALID,0,VALID,22.5501,VALID,63,VALID,0.133594,
2010-08-29, 01:48:04,VALID,1001.65,VALID,0,VALID,91.3952,VALID,0,VALID,22.5289,VALID,63,VALID,0.245703,
2010-08-29, 01:49:04,VALID,1001.65,VALID,0,VALID,91.4028,VALID,0,VALID,22.5289,VALID,63,VALID,0.262891,
2010-08-29, 01:50:04,VALID,1001.66,VALID,0,VALID,91.4181,VALID,0,VALID,22.5289,VALID,63,VALID,0.346875,
2010-08-29, 01:51:04,VALID,1001.66,VALID,0,VALID,91.5249,VALID,0,VALID,22.5289,VALID,63,VALID,0.326562,
2010-08-29, 01:52:04,VALID,1001.67,VALID,0,VALID,91.586,VALID,0,VALID,22.5501,VALID,63,VALID,0.213672,
2010-08-29, 01:53:04,VALID,1001.68,VALID,0,VALID,91.6394,VALID,0,VALID,22.5289,VALID,63,VALID,0.236328,
2010-08-29, 01:54:04,VALID,1001.68,VALID,0,VALID,91.6317,VALID,0,VALID,22.5501,VALID,63,VALID,0.216016,
2010-08-29, 01:55:04,VALID,1001.68,VALID,0,VALID,91.5707,VALID,0,VALID,22.5501,VALID,63,VALID,0,
2010-08-29, 01:56:04,VALID,1001.68,VALID,0,VALID,91.5249,VALID,0,VALID,22.5289,VALID,63,VALID,0.0542969,
2010-08-29, 01:57:04,VALID,1001.68,VALID,0,VALID,91.5097,VALID,0,VALID,22.5306,VALID,63,VALID,0.262891,
2010-08-29, 01:58:04,VALID,1001.68,VALID,0,VALID,91.5631,VALID,0,VALID,22.5306,VALID,63,VALID,0,
2010-08-29, 01:59:04,VALID,1001.68,VALID,0,VALID,91.5402,VALID,0,VALID,22.4899,VALID,63,VALID,0,
2010-08-29, 02:00:04,VALID,1001.67,VALID,0,VALID,91.5173,VALID,0,VALID,22.4721,VALID,63,VALID,0.125781,
2010-08-29, 02:01:04,VALID,1001.65,VALID,0,VALID,91.6088,VALID,0,VALID,22.4331,VALID,63,VALID,0.453906,
2010-08-29, 02:02:04,VALID,1001.69,VALID,0,VALID,91.7538,VALID,0,VALID,22.4331,VALID,63,VALID,0.453516,
2010-08-29, 02:03:04,VALID,1001.7,VALID,0,VALID,91.8911,VALID,0,VALID,22.3941,VALID,63,VALID,0.449609,
2010-08-29, 02:04:04,VALID,1001.72,VALID,0,VALID,92.0437,VALID,0,VALID,22.3746,VALID,63,VALID,0.355078,
2010-08-29, 02:05:04,VALID,1001.72,VALID,0,VALID,92.1582,VALID,0,VALID,22.3534,VALID,63,VALID,0.35625,
2010-08-29, 02:06:04,VALID,1001.72,VALID,0,VALID,92.2116,VALID,0,VALID,22.3356,VALID,63,VALID,0.324219,
2010-08-29, 02:07:04,VALID,1001.71,VALID,0,VALID,92.2497,VALID,0,VALID,22.3356,VALID,63,VALID,0.326562,
2010-08-29, 02:08:04,VALID,1001.7,VALID,0,VALID,92.326,VALID,0,VALID,22.3178,VALID,63,VALID,0.228125,
2010-08-29, 02:09:04,VALID,1001.7,VALID,0,VALID,92.3184,VALID,0,VALID,22.2771,VALID,63,VALID,0.1625,
2010-08-29, 02:10:04,VALID,1001.71,VALID,0,VALID,92.3489,VALID,0,VALID,22.2381,VALID,63,VALID,0,
2010-08-29, 02:11:04,VALID,1001.69,VALID,0,VALID,92.4252,VALID,0,VALID,22.2381,VALID,63,VALID,0,
2010-08-29, 02:12:04,VALID,1001.68,VALID,0,VALID,92.5397,VALID,0,VALID,22.2381,VALID,63,VALID,0,
2010-08-29, 02:13:04,VALID,1001.67,VALID,0,VALID,92.5854,VALID,0,VALID,22.199,VALID,63,VALID,0.1875,
2010-08-29, 02:14:04,VALID,1001.67,VALID,0,VALID,92.616,VALID,0,VALID,22.16,VALID,63,VALID,0.0503906,
2010-08-29, 02:15:04,VALID,1001.64,VALID,0,VALID,92.6388,VALID,0,VALID,22.121,VALID,63,VALID,0,
2010-08-29, 02:16:04,VALID,1001.65,VALID,0,VALID,92.6617,VALID,0,VALID,22.082,VALID,63,VALID,0,
2010-08-29, 02:17:04,VALID,1001.66,VALID,0,VALID,92.7151,VALID,0,VALID,22.1015,VALID,63,VALID,0.339844,
2010-08-29, 02:18:04,VALID,1001.64,VALID,0,VALID,92.7609,VALID,0,VALID,22.082,VALID,63,VALID,0.315625,
2010-08-29, 02:19:04,VALID,1001.68,VALID,0,VALID,92.822,VALID,0,VALID,22.0625,VALID,63,VALID,0.416406,
2010-08-29, 02:20:04,VALID,1001.68,VALID,0,VALID,92.8525,VALID,0,VALID,22.0625,VALID,63,VALID,0.257813,
2010-08-29, 02:21:04,VALID,1001.69,VALID,0,VALID,92.9059,VALID,0,VALID,22.0413,VALID,62,VALID,0.501562,
2010-08-29, 02:22:04,VALID,1001.69,VALID,0,VALID,92.944,VALID,0,VALID,22.0625,VALID,20,VALID,0.526563,
2010-08-29, 02:23:04,VALID,1001.73,VALID,0,VALID,92.9974,VALID,0,VALID,22.0625,VALID,20,VALID,0.445703,
2010-08-29, 02:24:04,VALID,1001.74,VALID,0,VALID,92.9669,VALID,0,VALID,22.0235,VALID,20,VALID,0.626953,
2010-08-29, 02:25:04,VALID,1001.73,VALID,0,VALID,93.0051,VALID,0,VALID,22.0235,VALID,20,VALID,0.772656,
2010-08-29, 02:26:04,VALID,1001.74,VALID,0,VALID,93.028,VALID,0,VALID,22.043,VALID,19,VALID,0.994922,
2010-08-29, 02:27:04,VALID,1001.78,VALID,0,VALID,92.9669,VALID,0,VALID,22.0235,VALID,19,VALID,1.10078,
2010-08-29, 02:28:04,VALID,1001.76,VALID,0,VALID,92.9135,VALID,0,VALID,21.9845,VALID,21,VALID,1.25742,
2010-08-29, 02:29:04,VALID,1001.77,VALID,0,VALID,92.8983,VALID,0,VALID,22.004,VALID,21,VALID,1.22227,
2010-08-29, 02:30:04,VALID,1001.76,VALID,0,VALID,92.8983,VALID,0,VALID,21.9845,VALID,21,VALID,1.1332,
2010-08-29, 02:31:04,VALID,1001.73,VALID,0,VALID,92.8754,VALID,0,VALID,21.965,VALID,21,VALID,1.07305,
2010-08-29, 02:32:04,VALID,1001.73,VALID,0,VALID,92.8906,VALID,0,VALID,21.9455,VALID,23,VALID,1.14961,
2010-08-29, 02:33:04,VALID,1001.7,VALID,0,VALID,92.9288,VALID,0,VALID,21.965,VALID,23,VALID,0.998828,
2010-08-29, 02:34:04,VALID,1001.7,VALID,0,VALID,92.944,VALID,0,VALID,21.965,VALID,22,VALID,1.30234,
2010-08-29, 02:35:04,VALID,1001.7,VALID,0,VALID,92.9745,VALID,0,VALID,22.0057,VALID,17,VALID,1.27773,
2010-08-29, 02:36:04,VALID,1001.73,VALID,0,VALID,92.9669,VALID,0,VALID,21.965,VALID,17,VALID,1.05547,
2010-08-29, 02:37:04,VALID,1001.7,VALID,0,VALID,92.944,VALID,0,VALID,21.9845,VALID,17,VALID,0.853516,
2010-08-29, 02:38:04,VALID,1001.69,VALID,0,VALID,92.9288,VALID,0,VALID,21.9845,VALID,17,VALID,0.641016,
2010-08-29, 02:39:04,VALID,1001.67,VALID,0,VALID,92.8983,VALID,0,VALID,21.9845,VALID,17,VALID,0.432422,
2010-08-29, 02:40:04,VALID,1001.62,VALID,0,VALID,92.8372,VALID,0,VALID,21.965,VALID,17,VALID,0.465625,
2010-08-29, 02:41:04,VALID,1001.61,VALID,0,VALID,92.7838,VALID,0,VALID,21.9455,VALID,17,VALID,0.467969,
2010-08-29, 02:42:04,VALID,1001.61,VALID,0,VALID,92.7457,VALID,0,VALID,21.9455,VALID,17,VALID,0.515234,
2010-08-29, 02:43:04,VALID,1001.57,VALID,0,VALID,92.7304,VALID,0,VALID,21.9455,VALID,34,VALID,0.683203,
2010-08-29, 02:44:04,VALID,1001.55,VALID,0,VALID,92.7457,VALID,0,VALID,21.9243,VALID,39,VALID,0.664063,
2010-08-29, 02:45:04,VALID,1001.57,VALID,0,VALID,92.7838,VALID,0,VALID,21.965,VALID,57,VALID,0.689844,
2010-08-29, 02:46:04,VALID,1001.58,VALID,0,VALID,92.8296,VALID,0,VALID,22.004,VALID,81,VALID,0.894141,
2010-08-29, 02:47:04,VALID,1001.58,VALID,0,VALID,92.7991,VALID,0,VALID,22.043,VALID,90,VALID,0.974609,
2010-08-29, 02:48:04,VALID,1001.61,VALID,0,VALID,92.822,VALID,0,VALID,22.0625,VALID,91,VALID,0.940234,
2010-08-29, 02:49:04,VALID,1001.6,VALID,0,VALID,92.7838,VALID,0,VALID,22.0837,VALID,94,VALID,1.01211,
2010-08-29, 02:50:04,VALID,1001.58,VALID,0,VALID,92.7151,VALID,0,VALID,22.082,VALID,94,VALID,1.00273,
2010-08-29, 02:51:04,VALID,1001.57,VALID,0,VALID,92.6923,VALID,0,VALID,22.082,VALID,94,VALID,0.753906,
2010-08-29, 02:52:04,VALID,1001.55,VALID,0,VALID,92.6236,VALID,0,VALID,22.0608,VALID,94,VALID,0.566406,
2010-08-29, 02:53:04,VALID,1001.55,VALID,0,VALID,92.5702,VALID,0,VALID,22.0625,VALID,94,VALID,0.439063,
2010-08-29, 02:54:04,VALID,1001.54,VALID,0,VALID,92.5931,VALID,0,VALID,22.0625,VALID,94,VALID,0.586719,
2010-08-29, 02:55:04,VALID,1001.51,VALID,0,VALID,92.6083,VALID,0,VALID,22.0803,VALID,94,VALID,0.666406,
2010-08-29, 02:56:04,VALID,1001.49,VALID,0,VALID,92.6007,VALID,0,VALID,22.0998,VALID,83,VALID,0.736719,
2010-08-29, 02:57:04,VALID,1001.47,VALID,0,VALID,92.5549,VALID,0,VALID,22.1015,VALID,79,VALID,0.817187,
2010-08-29, 02:58:04,VALID,1001.47,VALID,0,VALID,92.4405,VALID,0,VALID,22.0803,VALID,79,VALID,0.794531,
2010-08-29, 02:59:04,VALID,1001.49,VALID,0,VALID,92.3718,VALID,0,VALID,22.082,VALID,78,VALID,0.83125,
2010-08-29, 03:00:04,VALID,1001.48,VALID,0,VALID,92.2879,VALID,0,VALID,22.082,VALID,78,VALID,0.605469,
2010-08-29, 03:01:04,VALID,1001.5,VALID,0,VALID,92.2268,VALID,0,VALID,22.082,VALID,78,VALID,0.420703,
2010-08-29, 03:02:04,VALID,1001.48,VALID,0,VALID,92.1582,VALID,0,VALID,22.082,VALID,78,VALID,0.387109,
2010-08-29, 03:03:04,VALID,1001.53,VALID,0,VALID,92.1658,VALID,0,VALID,22.0413,VALID,78,VALID,0.470313,
2010-08-29, 03:04:04,VALID,1001.54,VALID,0,VALID,92.2803,VALID,0,VALID,22.082,VALID,78,VALID,0.515234,
2010-08-29, 03:05:04,VALID,1001.53,VALID,0,VALID,92.3337,VALID,0,VALID,22.082,VALID,78,VALID,0.463281,
2010-08-29, 03:06:04,VALID,1001.54,VALID,0,VALID,92.3871,VALID,0,VALID,22.1015,VALID,129,VALID,0.845703,
2010-08-29, 03:07:04,VALID,1001.5,VALID,0,VALID,92.3184,VALID,0,VALID,22.1015,VALID,128,VALID,0.789844,
2010-08-29, 03:08:04,VALID,1001.54,VALID,0,VALID,92.265,VALID,0,VALID,22.082,VALID,128,VALID,0.689453,
2010-08-29, 03:09:04,VALID,1001.53,VALID,0,VALID,92.2574,VALID,0,VALID,22.0625,VALID,128,VALID,0.453906,
2010-08-29, 03:10:04,VALID,1001.51,VALID,0,VALID,92.3184,VALID,0,VALID,22.082,VALID,128,VALID,0.383203,
2010-08-29, 03:11:04,VALID,1001.5,VALID,0,VALID,92.4252,VALID,0,VALID,22.0608,VALID,128,VALID,0.241016,
2010-08-29, 03:12:04,VALID,1001.5,VALID,0,VALID,92.5244,VALID,0,VALID,22.0608,VALID,128,VALID,0.276563,
2010-08-29, 03:13:04,VALID,1001.49,VALID,0,VALID,92.5549,VALID,0,VALID,22.082,VALID,128,VALID,0.397656,
2010-08-29, 03:14:04,VALID,1001.5,VALID,0,VALID,92.5854,VALID,0,VALID,22.082,VALID,124,VALID,0.45,
2010-08-29, 03:15:04,VALID,1001.49,VALID,0,VALID,92.6388,VALID,0,VALID,22.1015,VALID,124,VALID,0.410937,
2010-08-29, 03:16:04,VALID,1001.49,VALID,0,VALID,92.6923,VALID,0,VALID,22.0998,VALID,124,VALID,0.364844,
2010-08-29, 03:17:04,VALID,1001.5,VALID,0,VALID,92.6999,VALID,0,VALID,22.1015,VALID,124,VALID,0.320703,
2010-08-29, 03:18:04,VALID,1001.46,VALID,0,VALID,92.6388,VALID,0,VALID,22.0803,VALID,124,VALID,0.368359,
2010-08-29, 03:19:04,VALID,1001.5,VALID,0,VALID,92.5778,VALID,0,VALID,22.082,VALID,42,VALID,0.409766,
2010-08-29, 03:20:04,VALID,1001.47,VALID,0,VALID,92.5244,VALID,0,VALID,22.082,VALID,27,VALID,0.615625,
2010-08-29, 03:21:04,VALID,1001.48,VALID,0,VALID,92.5931,VALID,0,VALID,22.0803,VALID,27,VALID,0.421484,
2010-08-29, 03:22:04,VALID,1001.49,VALID,0,VALID,92.5931,VALID,0,VALID,22.082,VALID,27,VALID,0.606641,
2010-08-29, 03:23:04,VALID,1001.49,VALID,0,VALID,92.616,VALID,0,VALID,22.082,VALID,27,VALID,0.742578,
2010-08-29, 03:24:04,VALID,1001.49,VALID,0,VALID,92.5091,VALID,0,VALID,22.0625,VALID,27,VALID,0.892187,
2010-08-29, 03:25:04,VALID,1001.5,VALID,0,VALID,92.471,VALID,0,VALID,22.043,VALID,27,VALID,0.7125,
2010-08-29, 03:26:04,VALID,1001.52,VALID,0,VALID,92.4481,VALID,0,VALID,22.004,VALID,27,VALID,0.584766,
2010-08-29, 03:27:04,VALID,1001.52,VALID,0,VALID,92.3871,VALID,0,VALID,22.004,VALID,27,VALID,0.728125,
2010-08-29, 03:28:04,VALID,1001.51,VALID,0,VALID,92.3108,VALID,0,VALID,21.965,VALID,27,VALID,0.777344,
2010-08-29, 03:29:04,VALID,1001.52,VALID,0,VALID,92.2803,VALID,0,VALID,21.926,VALID,27,VALID,0.7125,
2010-08-29, 03:30:04,VALID,1001.49,VALID,0,VALID,92.2955,VALID,0,VALID,21.9455,VALID,27,VALID,0.673047,
2010-08-29, 03:31:04,VALID,1001.49,VALID,0,VALID,92.3337,VALID,0,VALID,21.9048,VALID,27,VALID,0.730859,
2010-08-29, 03:32:04,VALID,1001.47,VALID,0,VALID,92.3642,VALID,0,VALID,21.9455,VALID,16,VALID,0.842578,
2010-08-29, 03:33:04,VALID,1001.46,VALID,0,VALID,92.3413,VALID,0,VALID,21.965,VALID,6,VALID,0.725391,
2010-08-29, 03:34:04,VALID,1001.45,VALID,0,VALID,92.3871,VALID,0,VALID,21.965,VALID,1,VALID,0.458203,
2010-08-29, 03:35:04,VALID,1001.45,VALID,0,VALID,92.4252,VALID,0,VALID,21.9845,VALID,1,VALID,0.260938,
2010-08-29, 03:36:04,VALID,1001.45,VALID,0,VALID,92.4405,VALID,0,VALID,22.004,VALID,1,VALID,0.260156,
2010-08-29, 03:37:04,VALID,1001.48,VALID,0,VALID,92.5168,VALID,0,VALID,22.043,VALID,1,VALID,0.264844,
2010-08-29, 03:38:04,VALID,1001.51,VALID,0,VALID,92.4939,VALID,0,VALID,22.0625,VALID,1,VALID,0.217578,
2010-08-29, 03:39:04,VALID,1001.49,VALID,0,VALID,92.471,VALID,0,VALID,22.043,VALID,1,VALID,0.021875,
2010-08-29, 03:40:04,VALID,1001.5,VALID,0,VALID,92.4176,VALID,0,VALID,22.043,VALID,1,VALID,0,
2010-08-29, 03:41:04,VALID,1001.52,VALID,0,VALID,92.3642,VALID,0,VALID,22.0235,VALID,1,VALID,0,
2010-08-29, 03:42:04,VALID,1001.52,VALID,0,VALID,92.3794,VALID,0,VALID,22.0218,VALID,1,VALID,0,
2010-08-29, 03:43:04,VALID,1001.5,VALID,0,VALID,92.4023,VALID,0,VALID,22.0235,VALID,1,VALID,0,
2010-08-29, 03:44:04,VALID,1001.5,VALID,0,VALID,92.4405,VALID,0,VALID,22.004,VALID,1,VALID,0,
2010-08-29, 03:45:04,VALID,1001.49,VALID,0,VALID,92.4557,VALID,0,VALID,22.004,VALID,1,VALID,0,
2010-08-29, 03:46:04,VALID,1001.47,VALID,0,VALID,92.532,VALID,0,VALID,21.9845,VALID,1,VALID,0,
2010-08-29, 03:47:04,VALID,1001.48,VALID,0,VALID,92.5931,VALID,0,VALID,21.9828,VALID,1,VALID,0.219531,